Weather History for EQBH - March, 2014

Change the Weather History Date:

Wednesday, March 19, 2014

  Actual Average Record
Temperature  
Mean Temperature 60 °F -  
Max Temperature 69 °F - - ()
Min Temperature 50 °F - - ()
Degree Days  
Heating Degree Days 6    
Growing Degree Days 10 (Base 50)    
Moisture  
Dew Point 44 °F    
Average Humidity 58    
Maximum Humidity 87    
Minimum Humidity 28    
Precipitation  
Precipitation 0.00 in - - ()
Sea Level Pressure  
Sea Level Pressure 30.14 in    
Wind  
Wind Speed 7 mph ()    
Max Wind Speed 13 mph    
Max Gust Speed -    
Visibility 6.2 miles    
Events      
T = Trace of Precipitation, MM = Missing Value Source: Averaged Metar Reports

Daily Weather History Graph

Daily Weather History Graph

Search for Another Location

Airport or City:

Trip Planner

Search our weather history database for the weather conditions in past years. The results will help you decide how hot, cold, wet, or windy it might be!

Date:

Astronomy

Mar. 19, 2014 Rise Set
Actual Time 6:18 AM AFT 6:23 PM AFT
Civil Twilight 5:54 AM AFT 6:48 PM AFT
Nautical Twilight 5:26 AM AFT 7:16 PM AFT
Astronomical Twilight 4:57 AM AFT 7:45 PM AFT
Moon 9:04 PM AFT (3/19) 7:38 AM AFT (3/19)
Length of Visible Light 12h 53m
Length of Day
12h 05m
Waning Gibbous, 93% of the Moon is Illuminated
Mar 19
Waning Gibbous
Mar 24
Last Quarter
Mar 30
New
Apr 7
First Quarter
Apr 15
Full

Hourly Weather History & Observations

Time (AFT) Temp. Dew Point Humidity Pressure Visibility Wind Dir Wind Speed Gust Speed Precip Events Conditions
12:20 AM 55.4 °F 46.4 °F 72% 30.24 in 6.2 mi North 4.6 mph - N/A   Scattered Clouds
1:20 AM 53.6 °F 48.2 °F 82% 30.21 in 6.2 mi North 3.5 mph - N/A   Mostly Cloudy
2:20 AM 51.8 °F 46.4 °F 82% 30.18 in 6.2 mi NE 4.6 mph - N/A   Mostly Cloudy
3:20 AM 51.8 °F 46.4 °F 82% 30.18 in 6.2 mi North 8.1 mph - N/A   Mostly Cloudy
4:20 AM 50.0 °F 46.4 °F 87% 30.15 in 6.2 mi NNE 8.1 mph - N/A   Mostly Cloudy
5:20 AM 50.0 °F 44.6 °F 82% 30.18 in 6.2 mi NNE 10.4 mph - N/A   Mostly Cloudy
6:20 AM 50.0 °F 44.6 °F 82% 30.18 in 6.2 mi SE 10.4 mph - N/A   Mostly Cloudy
7:20 AM 51.8 °F 44.6 °F 76% 30.18 in 6.2 mi East 10.4 mph - N/A   Mostly Cloudy
8:20 AM 55.4 °F 44.6 °F 67% 30.21 in 6.2 mi East 11.5 mph - N/A   Mostly Cloudy
9:20 AM 59.0 °F 44.6 °F 59% 30.21 in 6.2 mi East 12.7 mph - N/A   Mostly Cloudy
10:20 AM 62.6 °F 46.4 °F 55% 30.21 in 6.2 mi East 12.7 mph - N/A   Scattered Clouds
11:20 AM 66.2 °F 44.6 °F 46% 30.18 in 6.2 mi East 12.7 mph - N/A   Mostly Cloudy
12:20 PM 68.0 °F 41.0 °F 37% 30.18 in 6.2 mi SE 8.1 mph - N/A   Mostly Cloudy
1:20 PM 68.0 °F 39.2 °F 35% 30.15 in 6.2 mi SE 5.8 mph - N/A   Scattered Clouds
2:20 PM 69.8 °F 35.6 °F 28% 30.12 in 6.2 mi ESE 4.6 mph - N/A   Scattered Clouds
3:20 PM 69.8 °F 39.2 °F 33% 30.09 in 6.2 mi ESE 8.1 mph - N/A   Mostly Cloudy
4:20 PM 69.8 °F 39.2 °F 33% 30.06 in 6.2 mi East 8.1 mph - N/A   Mostly Cloudy
5:20 PM 69.8 °F 39.2 °F 33% 30.06 in 6.2 mi East 6.9 mph - N/A   Mostly Cloudy
6:20 PM 68.0 °F 42.8 °F 40% 30.06 in 6.2 mi East 3.5 mph - N/A   Mostly Cloudy
7:20 PM 66.2 °F 42.8 °F 43% 30.06 in 6.2 mi ENE 6.9 mph - N/A   Mostly Cloudy
8:20 PM 64.4 °F 44.6 °F 49% 30.06 in 6.2 mi NE 8.1 mph - N/A   Mostly Cloudy
9:20 PM 62.6 °F 42.8 °F 48% 30.06 in 6.2 mi NE 11.5 mph - N/A   Mostly Cloudy
10:20 PM 59.0 °F 48.2 °F 67% 30.06 in 6.2 mi NNE 9.2 mph - N/A   Mostly Cloudy
11:20 PM 57.2 °F 48.2 °F 72% 30.06 in 6.2 mi NNE 10.4 mph - N/A   Scattered Clouds